Change the Weather History Date:

Wednesday, May 29, 2013

  Actual Average Record
Temperature  
Mean Temperature 47 °F -  
Max Temperature 57 °F 68 °F 91 °F (2003)
Min Temperature 37 °F 42 °F 32 °F (2004)
Degree Days  
Heating Degree Days 18    
Moisture  
Dew Point 36 °F    
Average Humidity 71    
Maximum Humidity 93    
Minimum Humidity 36    
Precipitation  
Precipitation 0.00 in - - ()
Sea Level Pressure  
Sea Level Pressure 29.82 in    
Wind  
Wind Speed 8 mph (NW)    
Max Wind Speed 15 mph    
Max Gust Speed 25 mph    
Visibility 10 miles    
Events Rain    
Averages and records for this station are not official NWS values.
T = Trace of Precipitation, MM = Missing Value Source: NWS Daily Summary

Daily Weather History Graph

Daily Weather History Graph

Search for Another Location

Airport or City:

Trip Planner

Search our weather history database for the weather conditions in past years. The results will help you decide how hot, cold, wet, or windy it might be!

Date:

Astronomy

May. 29, 2013 Rise Set
Actual Time 6:00 AM MDT 9:09 PM MDT
Civil Twilight 5:25 AM MDT 9:43 PM MDT
Nautical Twilight 4:41 AM MDT 10:28 PM MDT
Astronomical Twilight 3:47 AM MDT 11:22 PM MDT
Moon 12:30 AM MDT (5/29) 11:09 AM MDT (5/29)
Length of Visible Light 16h 18m
Length of Day
15h 08m
Waning Gibbous, 72% of the Moon is Illuminated
May 29
Waning Gibbous
May 31
Last Quarter
Jun 8
New
Jun 16
First Quarter
Jun 23
Full

Hourly Weather History & Observations

Time (MDT) Temp. Windchill Dew Point Humidity Pressure Visibility Wind Dir Wind Speed Gust Speed Precip Events Conditions
12:15 AM 44.6 °F 39.7 °F 39.2 °F 81% 29.85 in 10.0 mi WNW 9.2 mph - N/A   Overcast
12:35 AM 44.6 °F 40.2 °F 39.2 °F 81% 29.85 in 10.0 mi NW 8.1 mph - N/A   Overcast
12:55 AM 44.6 °F 40.7 °F 39.2 °F 81% 29.85 in 10.0 mi WNW 6.9 mph - N/A   Mostly Cloudy
1:15 AM 42.8 °F 39.3 °F 37.4 °F 81% 29.84 in 10.0 mi NW 5.8 mph - N/A   Scattered Clouds
1:35 AM 44.6 °F 39.7 °F 37.4 °F 76% 29.83 in 10.0 mi NW 9.2 mph - N/A   Clear
1:55 AM 42.8 °F 38.0 °F 37.4 °F 81% 29.83 in 10.0 mi NW 8.1 mph - N/A   Clear
2:15 AM 42.8 °F 38.0 °F 37.4 °F 81% 29.83 in 10.0 mi NW 8.1 mph - N/A   Clear
2:35 AM 41.0 °F 35.2 °F 37.4 °F 87% 29.82 in 10.0 mi WNW 9.2 mph - N/A   Clear
2:55 AM 41.0 °F 35.2 °F 37.4 °F 87% 29.82 in 10.0 mi WNW 9.2 mph - N/A   Clear
3:15 AM 41.0 °F 36.4 °F 35.6 °F 81% 29.83 in 10.0 mi NW 6.9 mph - N/A   Clear
3:35 AM 41.0 °F 38.0 °F 35.6 °F 81% 29.83 in 10.0 mi WNW 4.6 mph - N/A   Clear
3:55 AM 41.0 °F 36.4 °F 35.6 °F 81% 29.83 in 10.0 mi North 6.9 mph - N/A   Scattered Clouds
4:15 AM 39.2 °F 35.9 °F 35.6 °F 87% 29.83 in 10.0 mi NW 4.6 mph - N/A   Scattered Clouds
4:35 AM 39.2 °F 34.2 °F 35.6 °F 87% 29.82 in 10.0 mi NW 6.9 mph - N/A   Clear
4:55 AM 39.2 °F 34.2 °F 35.6 °F 87% 29.81 in 10.0 mi NW 6.9 mph - N/A   Clear
5:15 AM 37.4 °F 31.4 °F 35.6 °F 93% 29.81 in 10.0 mi WNW 8.1 mph - N/A   Clear
5:35 AM 37.4 °F 31.4 °F 35.6 °F 93% 29.81 in 10.0 mi NW 8.1 mph - N/A   Clear
5:55 AM 37.4 °F 30.8 °F 33.8 °F 87% 29.81 in 10.0 mi WNW 9.2 mph - N/A   Clear
6:15 AM 37.4 °F 30.8 °F 33.8 °F 87% 29.81 in 10.0 mi NW 9.2 mph - N/A   Clear
6:35 AM 37.4 °F 30.8 °F 33.8 °F 87% 29.81 in 10.0 mi NNW 9.2 mph - N/A   Clear
6:47 AM 39.2 °F 33.6 °F 35.6 °F 87% 29.81 in 10.0 mi WNW 8.1 mph - N/A   Mostly Cloudy
6:55 AM 37.4 °F 32.8 °F 33.8 °F 87% 29.81 in 10.0 mi NW 5.8 mph - N/A   Clear
7:47 AM 41.0 °F 37.1 °F 35.6 °F 81% 29.80 in 10.0 mi NW 5.8 mph - N/A   Mostly Cloudy
8:47 AM 46.4 °F 43.5 °F 37.4 °F 71% 29.80 in 10.0 mi NW 5.8 mph - N/A   Mostly Cloudy
9:47 AM 48.2 °F - 37.4 °F 66% 29.79 in 10.0 mi Calm Calm - N/A   Mostly Cloudy
10:47 AM 51.8 °F - 41.0 °F 67% 29.79 in 10.0 mi ESE 8.1 mph - N/A   Mostly Cloudy
11:47 AM 51.8 °F - 42.8 °F 71% 29.79 in 10.0 mi East 3.5 mph - N/A Rain Light Rain
12:47 PM 51.8 °F - 39.2 °F 62% 29.81 in 10.0 mi SSW 15.0 mph 25.3 mph N/A   Overcast
1:47 PM 53.6 °F - 39.2 °F 58% 29.80 in 10.0 mi WNW 8.1 mph - N/A   Mostly Cloudy
2:47 PM 55.4 °F - 39.2 °F 54% 29.78 in 10.0 mi West 8.1 mph - N/A   Mostly Cloudy
3:47 PM 55.4 °F - 39.2 °F 54% 29.79 in 10.0 mi SSW 5.8 mph - N/A Rain Light Rain
4:55 PM 57.2 °F - 37.4 °F 48% 29.78 in 10.0 mi SSW 10.4 mph 17.3 mph N/A   Mostly Cloudy
5:50 PM 57.2 °F - 32.0 °F 38% 29.78 in 10.0 mi WSW 13.8 mph 19.6 mph N/A   Scattered Clouds
6:55 PM 57.2 °F - 30.2 °F 36% 29.77 in 10.0 mi SW 9.2 mph 16.1 mph N/A   Mostly Cloudy
7:55 PM 55.4 °F - 28.4 °F 36% 29.80 in 10.0 mi NW 15.0 mph 20.7 mph N/A   Scattered Clouds
8:47 PM 53.6 °F - 28.4 °F 38% 29.81 in 10.0 mi WNW 11.5 mph 18.4 mph N/A   Scattered Clouds
9:50 PM 50.0 °F - 30.2 °F 47% 29.84 in 10.0 mi WNW 4.6 mph - N/A   Partly Cloudy
10:47 PM 48.2 °F - 32.0 °F 54% 29.84 in 10.0 mi North 4.6 mph - N/A   Partly Cloudy
11:15 PM 44.6 °F 40.7 °F 32.0 °F 61% 29.85 in 10.0 mi North 6.9 mph - N/A   Mostly Cloudy
11:35 PM 44.6 °F 42.2 °F 32.0 °F 61% 29.86 in 10.0 mi North 4.6 mph - N/A   Scattered Clouds
11:55 PM 44.6 °F 43.1 °F 32.0 °F 61% 29.86 in 10.0 mi NNW 3.5 mph - N/A   Clear